EW8081 Weather Reports


Display with metric or nautical units.
time (UTC)temp
F
wind
direction
speed
MPH
gust
MPH
rain 1hr
in
rain 24hr
in
rain mn
in
humidity
%
barometer
mb
20260504231534 70 326 5.0 11.0 0.00 0.03 0.01 48 1017.6
20260504230031 69 322 3.0 11.0 0.00 0.03 0.01 50 1017.7
20260504224527 68 335 2.0 10.0 0.00 0.03 0.01 51 1017.4
20260504223022 66 299 3.0 11.0 0.00 0.03 0.01 56 1017.3
20260504221523 63 296 2.0 12.0 0.00 0.03 0.01 62 1017.2
20260504220022 61 307 4.0 13.0 0.00 0.03 0.01 63 1017.2
20260504214514 60 288 4.0 10.0 0.00 0.03 0.01 66 1016.8
20260504213009 59 302 7.0 13.0 0.00 0.03 0.01 72 1016.6
20260504211507 57 301 6.0 10.0 0.00 0.03 0.01 78 1016.5
20260504210005 57 299 2.0 5.0 0.00 0.03 0.01 84 1016.5
20260504204502 57 303 2.0 8.0 0.00 0.03 0.01 85 1016.3
20260504203059 57 300 4.0 10.0 0.00 0.03 0.01 86 1016.0
20260504201557 58 289 5.0 9.0 0.00 0.03 0.01 86 1015.9
20260504200058 57 335 4.0 11.0 0.00 0.03 0.01 85 1015.5
20260504194552 57 300 2.0 6.0 0.00 0.03 0.01 83 1015.3
20260504193048 58 285 3.0 7.0 0.00 0.03 0.01 82 1015.1
20260504191554 58 289 4.0 10.0 0.00 0.03 0.01 81 1015.2
20260504190050 59 287 4.0 8.0 0.00 0.03 0.01 81 1015.1
20260504184553 59 322 6.0 11.0 0.00 0.03 0.01 81 1014.9
20260504183048 59 300 4.0 9.0 0.00 0.03 0.01 81 1014.7
20260504181546 59 290 3.0 8.0 0.00 0.03 0.01 81 1014.6
20260504180036 59 291 2.0 8.0 0.00 0.03 0.01 82 1014.5
20260504174534 60 270 3.0 8.0 0.00 0.03 0.01 82 1014.4
20260504173031 60 284 1.0 9.0 0.00 0.03 0.01 82 1014.6
20260504171528 61 293 2.0 5.0 0.00 0.03 0.01 82 1014.7
20260504081546 67 44 2.0 5.0 0.00 0.02 0.02 84 1013.9
20260504044543 68 22 2.0 5.0 0.00 0.02 0.02 77 1013.4
20260504043036 68 24 2.0 4.0 0.00 0.02 0.02 77 1013.6
20260504041534 69 29 0.0 3.0 0.00 0.02 0.02 80 1013.5
20260504040034 67 39 0.0 3.0 0.00 0.02 0.02 82 1013.8
20260504034552 67 20 2.0 4.0 0.00 0.02 0.02 82 1014.0
20260504033030 67 35 0.0 4.0 0.01 0.02 0.02 82 1014.3
20260504031529 67 10 0.0 4.0 0.01 0.02 0.02 82 1014.4
20260504030040 67 360 1.0 5.0 0.02 0.02 0.02 83 1014.7
20260504024528 67 330 1.0 3.0 0.02 0.02 0.02 84 1015.0
20260504023027 67 344 1.0 5.0 0.02 0.02 0.02 82 1015.2
20260504021526 68 325 2.0 7.0 0.02 0.02 0.02 81 1015.5
20260504020026 69 314 2.0 6.0 0.01 0.01 0.01 79 1015.7
20260504014536 70 10 0.0 3.0 0.00 0.00 0.00 77 1016.0
20260504013025 70 10 1.0 3.0 0.00 0.00 0.00 75 1016.0
20260504011524 70 10 0.0 3.0 0.00 0.00 0.00 74 1016.3
20260504010028 71 38 0.0 4.0 0.00 0.00 0.00 74 1016.4
20260504004524 72 41 2.0 6.0 0.00 0.00 0.00 70 1016.1
20260504003030 72 41 1.0 4.0 0.00 0.00 0.00 73 1016.1
20260504001519 71 16 0.0 4.0 0.00 0.00 0.00 79 1016.2
20260504000015 70 47 1.0 5.0 0.00 0.00 0.00 82 1016.2
20260503234529 69 46 3.0 6.0 0.00 0.00 0.00 81 1016.2
20260503233012 69 10 2.0 5.0 0.00 0.00 0.00 80 1016.1